Flag for Germany Weather past 2 weeks in Freising, Bavaria, Germany

Now
50 °F

Scattered clouds.


Feels Like: 50 °F
Forecast: 34 / 54 °F
Wind: 2 mph from North

Location: Muenchen Flughafen

Current Time: Apr 18, 2015 at 4:32:29 PM

Latest Report: Apr 18, 2015 at 4:00 PM


Visibility: 37 mi

Pressure: 30.23 "Hg

Humidity: 48%

Dew point: 31 °F

Location of FreisingLocation

Historic Weather in Freising — Graph

°F

Freising temperature yesterday

Maximum temperature yesterday: 63 °F (at 2:00 PM)
Minimum temperature yesterday: 47 °F (at 11:00 PM)
Average temperature yesterday: 54 °F

Past Weeks' High & Low Weather Summary

 TemperatureHumidityPressure
High73 °F (Apr 15, 5:00 PM)98% (Apr 9, 4:00 AM)30.66 "Hg (Apr 9, 4:00 AM)
Low24 °F (Apr 7, 6:00 AM)23% (Apr 15, 6:00 PM)29.83 "Hg (Apr 17, 2:00 PM)
Average48 °F65%30.24 "Hg
* Reported Apr 3 3:00 PM — Apr 18 3:00 PM, Freising, Weather by CustomWeather, © 2015

Note: Actual official high and low records may vary slightly from our data, if they occured in-between our weather recording intervals... More about our weather records

Advertising

Freising weather history for previous 24 hours

 ConditionsComfort  
Time TempWeatherWind HumidityBarometerVisibility
3:00 PM
Sat, Apr 18
47 °FPartly sunny.3 mph46%30.24 "Hg37 mi
2:00 PM48 °FPartly sunny.3 mph47%30.24 "Hg37 mi
1:00 PM46 °FPartly sunny.5 mph53%30.24 "Hg37 mi
12:00 PM47 °FPartly sunny.5 mph57%30.23 "Hg37 mi
11:00 AM46 °FPartly sunny.3 mph57%30.22 "Hg37 mi
10:00 AM45 °FPassing clouds.3 mph62%30.21 "Hg31 mi
9:00 AM43 °FScattered clouds.3 mph67%30.21 "Hg28 mi
8:00 AM41 °FScattered clouds.2 mph72%30.20 "Hg25 mi
7:00 AM41 °FPartly sunny.1 mph73%30.19 "Hg25 mi
6:00 AM40 °FOvercast.2 mph73%30.17 "Hg25 mi
5:00 AM41 °FOvercast.2 mph76%30.15 "Hg25 mi
4:00 AM41 °FOvercast.5 mph70%30.14 "Hg31 mi
3:00 AM42 °FOvercast.3 mph69%30.13 "Hg31 mi
2:00 AM43 °FOvercast.3 mph66%30.12 "Hg31 mi
1:00 AM43 °FOvercast.3 mph63%30.11 "Hg31 mi
12:00 AM45 °FOvercast.2 mph72%30.09 "Hg19 mi
11:00 PM
Fri, Apr 17
47 °FOvercast.5 mph74%30.04 "Hg12 mi
10:00 PM49 °FLight rain. Overcast.2 mph84%30.01 "Hg9 mi
9:00 PM49 °FLight rain. Overcast.3 mph83%29.98 "Hg9 mi
8:00 PM52 °FLight rain. Overcast.3 mph89%29.94 "Hg6 mi
7:00 PM52 °FOvercast.3 mph92%29.91 "Hg9 mi
6:00 PM52 °FSprinkles. Overcast.3 mph92%29.90 "Hg5 mi
5:00 PM52 °FSprinkles. Overcast.7 mph94%29.89 "Hg9 mi
4:00 PM51 °FSprinkles. Overcast.2 mph94%29.88 "Hg7 mi
Weather by CustomWeather, © 2015

See weather overviewHow to use our weather pages